• In Österreich
  • Länderverzeichnis
  • Für 7 Tage
  • Wassertemperatur
  • Satellitenkarten
  • Wetterkarte
  • News
  • Widgets
  • user-avatar
    Anmelden

    Stündliche Wetter Salta

    Heute, 19 Oktober, Donnerstag

    Zeit Temperatur Niederschläge Wind Luftdruck Luftfeuchtigkeit
    00:00 +26°C° 1 mm 2 m/S 651 mmHg 52%
    01:00 +25°C° 1 mm 2 m/S 651 mmHg 55%
    02:00 +24°C° 1 mm 3 m/S 652 mmHg 59%
    03:00 +22°C° 0,6 mm 3 m/S 652 mmHg 66%
    04:00 +21°C° 0,6 mm 3 m/S 652 mmHg 73%
    05:00 +20°C° 0,6 mm 3 m/S 653 mmHg 79%
    06:00 +20°C° 0,1 mm 3 m/S 653 mmHg 77%
    07:00 +20°C° 0,1 mm 3 m/S 654 mmHg 74%
    08:00 +21°C° 0,1 mm 3 m/S 655 mmHg 72%
    09:00 +21°C° 0,1 mm 3 m/S 655 mmHg 65%
    10:00 +22°C° 0,1 mm 3 m/S 655 mmHg 58%
    11:00 +22°C° 0,1 mm 3 m/S 654 mmHg 52%
    12:00 +25°C° 0,1 mm 3 m/S 654 mmHg 45%
    13:00 +26°C° 0,1 mm 4 m/S 653 mmHg 39%
    14:00 +27°C° 0,1 mm 4 m/S 652 mmHg 32%
    15:00 +26°C° 0,1 mm 3 m/S 652 mmHg 32%
    16:00 +26°C° 0,1 mm 3 m/S 651 mmHg 32%
    17:00 +25°C° 0,1 mm 3 m/S 651 mmHg 31%
    18:00 +24°C° 0 mm 2 m/S 651 mmHg 34%
    19:00 +21°C° 0 mm 2 m/S 651 mmHg 37%
    20:00 +20°C° 0 mm 2 m/S 651 mmHg 40%
    21:00 +19°C° 0 mm 2 m/S 651 mmHg 41%
    22:00 +20°C° 0 mm 1 m/S 651 mmHg 42%
    23:00 +19°C° 0 mm 1 m/S 651 mmHg 43%

    Morgen, 20 Oktober, Freitag

    Zeit Temperatur Niederschläge Wind Luftdruck Luftfeuchtigkeit
    00:00 +19°C° 0 mm 1 m/S 650 mmHg 43%
    01:00 +19°C° 0 mm 1 m/S 649 mmHg 43%
    02:00 +18°C° 0 mm 1 m/S 649 mmHg 43%
    03:00 +18°C° 0 mm 1 m/S 648 mmHg 41%
    04:00 +18°C° 0 mm 1 m/S 648 mmHg 40%
    05:00 +18°C° 0 mm 1 m/S 647 mmHg 39%
    06:00 +20°C° 0 mm 1 m/S 648 mmHg 35%
    07:00 +22°C° 0 mm 1 m/S 649 mmHg 30%
    08:00 +24°C° 0 mm 1 m/S 650 mmHg 26%
    09:00 +26°C° 0 mm 2 m/S 650 mmHg 24%
    10:00 +28°C° 0 mm 2 m/S 650 mmHg 21%
    11:00 +30°C° 0 mm 3 m/S 650 mmHg 19%
    12:00 +31°C° 0 mm 3 m/S 650 mmHg 18%
    13:00 +33°C° 0 mm 3 m/S 649 mmHg 17%
    14:00 +34°C° 0 mm 3 m/S 648 mmHg 16%
    15:00 +34°C° 0 mm 3 m/S 648 mmHg 17%
    16:00 +33°C° 0 mm 3 m/S 647 mmHg 19%
    17:00 +33°C° 0 mm 3 m/S 647 mmHg 20%
    18:00 +29°C° 0 mm 3 m/S 647 mmHg 27%
    19:00 +27°C° 0 mm 2 m/S 647 mmHg 34%
    20:00 +24°C° 0 mm 1 m/S 647 mmHg 41%
    21:00 +24°C° 0 mm 1 m/S 648 mmHg 42%
    22:00 +23°C° 0 mm 1 m/S 648 mmHg 44%
    23:00 +23°C° 0 mm 1 m/S 649 mmHg 45%

    übermorgen, 21 Oktober, Samstag

    Zeit Temperatur Niederschläge Wind Luftdruck Luftfeuchtigkeit
    00:00 +22°C° 0 mm 1 m/S 649 mmHg 46%
    01:00 +22°C° 0 mm 1 m/S 649 mmHg 46%
    02:00 +22°C° 0 mm 1 m/S 648 mmHg 47%
    03:00 +21°C° 0 mm 1 m/S 649 mmHg 50%
    04:00 +21°C° 0 mm 1 m/S 649 mmHg 52%
    05:00 +20°C° 0 mm 1 m/S 650 mmHg 55%
    06:00 +20°C° 0 mm 2 m/S 651 mmHg 58%
    07:00 +21°C° 0 mm 2 m/S 652 mmHg 60%
    08:00 +22°C° 0 mm 3 m/S 653 mmHg 62%
    09:00 +22°C° 0,4 mm 3 m/S 653 mmHg 62%
    10:00 +24°C° 0,4 mm 3 m/S 653 mmHg 62%
    11:00 +24°C° 0,4 mm 3 m/S 653 mmHg 61%
    12:00 +24°C° 0,2 mm 3 m/S 653 mmHg 63%
    13:00 +22°C° 0,2 mm 4 m/S 652 mmHg 64%
    14:00 +22°C° 0,2 mm 4 m/S 652 mmHg 65%
    15:00 +21°C° 0,1 mm 3 m/S 651 mmHg 69%
    16:00 +21°C° 0,1 mm 3 m/S 651 mmHg 72%
    17:00 +20°C° 0,1 mm 3 m/S 651 mmHg 76%
    18:00 +19°C° 0,2 mm 3 m/S 652 mmHg 78%
    19:00 +18°C° 0,2 mm 2 m/S 652 mmHg 81%
    20:00 +18°C° 0,2 mm 2 m/S 653 mmHg 83%
    21:00 +18°C° 0,2 mm 2 m/S 654 mmHg 83%
    22:00 +17°C° 0,2 mm 2 m/S 654 mmHg 84%
    23:00 +17°C° 0,2 mm 2 m/S 655 mmHg 84%

    22 Oktober, Sonntag

    Zeit Temperatur Niederschläge Wind Luftdruck Luftfeuchtigkeit
    00:00 +17°C° 0,2 mm 2 m/S 654 mmHg 83%
    01:00 +17°C° 0,2 mm 2 m/S 654 mmHg 83%
    02:00 +17°C° 0,2 mm 2 m/S 654 mmHg 83%
    03:00 +16°C° 0,1 mm 2 m/S 654 mmHg 83%
    04:00 +16°C° 0,1 mm 2 m/S 654 mmHg 83%
    05:00 +15°C° 0,1 mm 2 m/S 654 mmHg 83%
    06:00 +15°C° 0,1 mm 2 m/S 655 mmHg 81%
    07:00 +15°C° 0,1 mm 2 m/S 655 mmHg 79%
    08:00 +15°C° 0,1 mm 2 m/S 656 mmHg 77%
    09:00 +16°C° 0,1 mm 2 m/S 655 mmHg 74%
    10:00 +17°C° 0,1 mm 2 m/S 655 mmHg 70%
    11:00 +17°C° 0,1 mm 2 m/S 655 mmHg 67%
    12:00 +18°C° 0,1 mm 2 m/S 654 mmHg 67%
    13:00 +18°C° 0,1 mm 2 m/S 653 mmHg 66%
    14:00 +18°C° 0,1 mm 2 m/S 652 mmHg 66%
    15:00 +18°C° 0 mm 2 m/S 652 mmHg 68%
    16:00 +18°C° 0 mm 2 m/S 651 mmHg 69%
    17:00 +17°C° 0 mm 2 m/S 650 mmHg 71%
    18:00 +17°C° 0 mm 2 m/S 651 mmHg 74%
    19:00 +16°C° 0 mm 2 m/S 651 mmHg 78%
    20:00 +15°C° 0 mm 1 m/S 651 mmHg 81%
    21:00 +15°C° 0 mm 1 m/S 651 mmHg 82%
    22:00 +15°C° 0 mm 1 m/S 651 mmHg 83%
    23:00 +14°C° 0 mm 1 m/S 651 mmHg 84%

    23 Oktober, Montag

    Zeit Temperatur Niederschläge Wind Luftdruck Luftfeuchtigkeit
    00:00 +14°C° 0 mm 1 m/S 651 mmHg 83%
    01:00 +14°C° 0 mm 1 m/S 650 mmHg 83%
    02:00 +14°C° 0 mm 1 m/S 650 mmHg 82%
    03:00 +14°C° 0 mm 1 m/S 650 mmHg 80%
    04:00 +14°C° 0 mm 1 m/S 650 mmHg 77%
    05:00 +13°C° 0 mm 1 m/S 650 mmHg 75%
    06:00 +15°C° 0 mm 1 m/S 651 mmHg 68%
    07:00 +16°C° 0 mm 1 m/S 652 mmHg 62%
    08:00 +19°C° 0 mm 1 m/S 652 mmHg 55%
    09:00 +20°C° 0 mm 2 m/S 652 mmHg 50%
    10:00 +23°C° 0 mm 2 m/S 652 mmHg 44%
    11:00 +24°C° 0 mm 3 m/S 652 mmHg 39%
    12:00 +25°C° 0 mm 3 m/S 652 mmHg 37%
    13:00 +26°C° 0 mm 3 m/S 651 mmHg 36%
    14:00 +28°C° 0 mm 3 m/S 650 mmHg 34%
    15:00 +27°C° 0 mm 3 m/S 650 mmHg 36%
    16:00 +26°C° 0 mm 3 m/S 650 mmHg 38%
    17:00 +26°C° 0 mm 3 m/S 649 mmHg 40%
    18:00 +24°C° 0 mm 3 m/S 649 mmHg 47%
    19:00 +21°C° 0 mm 2 m/S 649 mmHg 54%
    20:00 +20°C° 0 mm 1 m/S 649 mmHg 61%
    21:00 +19°C° 0 mm 1 m/S 649 mmHg 62%
    22:00 +19°C° 0 mm 1 m/S 649 mmHg 63%
    23:00 +18°C° 0 mm 1 m/S 649 mmHg 64%

    24 Oktober, Dienstag

    Zeit Temperatur Niederschläge Wind Luftdruck Luftfeuchtigkeit
    00:00 +18°C° 0 mm 1 m/S 648 mmHg 63%
    01:00 +18°C° 0 mm 1 m/S 648 mmHg 63%
    02:00 +16°C° 0 mm 1 m/S 648 mmHg 62%
    03:00 +16°C° 0 mm 1 m/S 648 mmHg 59%
    04:00 +16°C° 0 mm 2 m/S 648 mmHg 57%
    05:00 +16°C° 0 mm 2 m/S 648 mmHg 54%
    06:00 +18°C° 0 mm 2 m/S 649 mmHg 47%
    07:00 +20°C° 0 mm 2 m/S 649 mmHg 40%
    08:00 +23°C° 0 mm 1 m/S 650 mmHg 33%
    09:00 +25°C° 0 mm 2 m/S 650 mmHg 30%
    10:00 +27°C° 0 mm 2 m/S 651 mmHg 27%
    11:00 +29°C° 0 mm 3 m/S 651 mmHg 24%
    12:00 +30°C° 0 mm 3 m/S 650 mmHg 23%
    13:00 +31°C° 0 mm 3 m/S 650 mmHg 22%
    14:00 +31°C° 0 mm 3 m/S 649 mmHg 21%
    15:00 +31°C° 0 mm 3 m/S 649 mmHg 23%
    16:00 +30°C° 0 mm 3 m/S 648 mmHg 25%
    17:00 +29°C° 0 mm 3 m/S 648 mmHg 27%
    18:00 +27°C° 0 mm 2 m/S 648 mmHg 34%
    19:00 +25°C° 0 mm 2 m/S 648 mmHg 40%
    20:00 +23°C° 0 mm 1 m/S 649 mmHg 47%
    21:00 +22°C° 0 mm 1 m/S 649 mmHg 48%
    22:00 +22°C° 0 mm 1 m/S 649 mmHg 49%
    23:00 +22°C° 0 mm 1 m/S 649 mmHg 50%
    Mehr zeigen